User: anonymous   Login
Location: Bismarck
(46.7731°N, 100.8200°W)
Time: 15:59:09
(UTC-05:00)
Language:

Cosmos 1125 Rocket - Orbit

View from above orbital plane
View from above orbital plane
View from above satellite
View from above satellite

Ground track
Ground track

The orbit data is extracted from the following two-line orbital elements,

1 11511U 79078B   15115.52770487  .00000366  00000-0  13327-3 0  9997
2 11511 074.0361 315.5102 0015210 028.0760 332.1210 14.36607392866071
Epoch (UTC): 25 April 2015 12:39:53
Eccentricity: 0.0015210
inclination: 74.0361°
perigee height: 759 km
apogee height: 780 km
right ascension of ascending node: 315.5102°
argument of perigee: 28.0760°
revolutions per day: 14.36607392
mean anomaly at epoch: 332.1210°
orbit number at epoch: 86607

The dashed part of the orbit path shows where the satellite is in the earth's shadow,  

DLR